[[{"header":{"parameterUnit":"m.s-1","parameterCategory":1,"la1":30.2992,"la2":30.254,"lo1":-89.0895,"lo2":-89.0443,"dy":0.0025,"dx":0.0025,"nx":19,"ny":19,"refTime":"2026-03-14T09:00:00:Z","depth":0,"parameterNumber":2,"parameterNumberName":"U-component_of_WINDS"},"data":[0,0,0,-1.6282,-1.6283,-1.6382,-1.6383,-1.645,-1.645,0,0,0,0,0,0,0,0,0,0,0,-1.6218,-1.6218,-1.6282,-1.6283,-1.6382,-1.6383,-1.645,-1.645,0,0,0,0,0,0,0,0,0,0,0,-1.6219,-1.6218,-1.6217,-1.6283,-1.6382,-1.6383,-1.645,-1.6396,0,0,0,0,0,0,0,0,0,0,-1.631,-1.6219,-1.6218,-1.6217,-1.6284,-1.6382,-1.6383,-1.6395,-1.64,-1.6381,0,-1.6356,0,-1.6404,-1.6451,-1.6451,0,0,0,-1.6308,-1.6214,-1.6272,-1.6217,-1.6284,-1.6381,-1.6345,-1.6398,-1.6404,-1.6387,-1.6358,-1.6362,-1.6405,-1.6451,-1.6451,-1.6255,-1.6253,0,0,-1.6303,-1.6218,-1.6268,-1.6274,-1.6256,-1.6341,-1.6347,-1.6402,-1.6364,-1.6358,-1.6364,-1.6406,-1.6451,-1.6451,-1.6257,-1.6254,0,0,0,-1.627,-1.6213,-1.627,-1.6269,-1.6292,-1.6343,-1.635,-1.6362,-1.6388,-1.6366,-1.6407,-1.6451,-1.6452,-1.626,-1.6256,-1.6062,0,0,0,-1.6268,-1.6194,-1.6267,-1.6215,-1.6289,-1.6328,-1.6308,-1.6384,-1.6393,-1.6406,-1.6451,-1.6452,-1.6262,-1.6258,-1.6073,-1.5983,0,0,0,-1.6223,-1.6189,-1.6192,-1.621,-1.625,-1.633,-1.636,-1.6388,-1.6417,-1.6451,-1.6452,-1.6264,-1.6259,-1.6082,-1.5999,-1.5899,0,0,0,-1.6151,-1.6023,-1.6187,-1.6061,-1.6249,-1.6211,-1.636,-1.6338,-1.6345,-1.6452,-1.6262,-1.6257,-1.6085,-1.6009,-1.5908,-1.5793,-1.574,0,0,-1.5942,-1.5995,-1.5927,-1.6077,-1.5987,-1.6203,-1.6086,-1.6175,-1.6259,-1.6251,-1.6247,-1.6069,-1.6,-1.5901,-1.5484,-1.5441,0,0,0,-1.5831,-1.578,-1.5776,-1.5777,-1.5841,-1.5885,-1.6002,-1.6034,-1.6031,-1.6238,-1.6015,-1.5976,-1.5921,-1.5869,-1.5832,-1.5786,-1.6232,-1.6232,-1.6233,-1.5408,-1.5519,-1.5411,-1.5531,-1.5531,-1.565,-1.5658,-1.5721,-1.5838,-1.5782,-1.5777,-1.5511,-1.5448,-1.5421,-1.5372,-1.5734,-1.5733,-1.5733,-1.5732,-1.5104,-1.5044,-1.5198,-1.5147,-1.5263,-1.5222,-1.533,-1.5412,-1.5388,-1.5526,-1.5483,-1.5615,-1.537,-1.5332,-1.5719,-1.5721,-1.5723,-1.5724,-1.5725,-1.483,-1.482,-1.4862,-1.4871,-1.4865,-1.4996,-1.4962,-1.5074,-1.5178,-1.5137,-1.5138,-1.5141,-1.515,-1.5131,-1.513,-1.5129,-1.5129,-1.5128,-1.5127,-1.4526,-1.458,-1.4538,-1.4592,-1.4604,-1.4634,-1.475,-1.4765,-1.4809,-1.4892,-1.4892,-1.5005,-1.5329,-1.5401,-1.5113,-1.5116,-1.5118,-1.5119,-1.512,-1.416,-1.426,-1.4194,-1.4206,-1.4275,-1.4256,-1.4401,-1.4419,-1.4449,-1.4427,-1.4552,-1.4776,-1.4838,-1.4868,-1.4928,-1.4535,-1.4535,-1.4535,-1.4535,-1.3921,-1.3966,-1.3919,-1.3929,-1.3952,-1.4074,-1.399,-1.4078,-1.4185,-1.4208,-1.4284,-1.4376,-1.4403,-1.4449,-1.4488,-1.4545,-1.4063,-1.4063,-1.4062,-1.3697,-1.3748,-1.3655,-1.376,-1.3822,-1.387,-1.3792,-1.3794,-1.3938,-1.4045,-1.4226,-1.4246,-1.4398,-1.4443,-1.4545,-1.4604,-1.4711,0,0]},{"header":{"parameterUnit":"m.s-1","parameterCategory":1,"la1":30.2992,"la2":30.254,"lo1":-89.0895,"lo2":-89.0443,"dy":0.0025,"dx":0.0025,"nx":19,"ny":19,"refTime":"2026-03-14T09:00:00:Z","depth":0,"parameterNumber":3,"parameterNumberName":"V-component_of_WINDS"},"data":[0,0,0,6.6823,6.6829,6.7106,6.7107,6.7454,6.7457,0,0,0,0,0,0,0,0,0,0,0,6.6744,6.6747,6.6822,6.6829,6.7105,6.7107,6.7454,6.7457,0,0,0,0,0,0,0,0,0,0,0,6.6743,6.6746,6.6749,6.683,6.7105,6.7107,6.7453,6.7245,0,0,0,0,0,0,0,0,0,0,6.6977,6.6909,6.6745,6.6749,6.6832,6.7105,6.7107,6.7235,6.7258,6.7329,0,6.7399,0,6.7434,6.7481,6.7482,0,0,0,6.6825,6.689,6.6962,6.675,6.6835,6.7105,6.698,6.7248,6.7274,6.7359,6.7404,6.7417,6.744,6.7483,6.7485,6.7924,6.7926,0,0,6.681,6.6794,6.6945,6.698,6.6944,6.6971,6.6988,6.7263,6.7308,6.7405,6.7425,6.7446,6.7486,6.7488,6.7922,6.7925,0,0,0,6.6769,6.6783,6.6849,6.6965,6.7016,6.6979,6.6999,6.7296,6.7319,6.7429,6.745,6.7488,6.7492,6.792,6.7923,6.8019,0,0,0,6.6759,6.676,6.6843,6.6835,6.7011,6.7161,6.7025,6.73,6.7332,6.7448,6.7488,6.7495,6.7917,6.7922,6.8011,6.8065,0,0,0,6.6725,6.6755,6.6798,6.6834,6.6954,6.7157,6.7196,6.7307,6.7345,6.7483,6.7496,6.7916,6.7921,6.8005,6.8054,6.8174,0,0,0,6.6681,6.6877,6.6799,6.7025,6.6951,6.7218,6.7194,6.7392,6.7522,6.749,6.7918,6.7923,6.8002,6.8047,6.8166,6.827,6.8313,0,0,6.6919,6.6905,6.704,6.6978,6.7255,6.7177,6.7466,6.7597,6.7621,6.782,6.7831,6.8014,6.8053,6.8172,6.8568,6.8602,0,0,0,6.7109,6.7205,6.7282,6.7409,6.7518,6.7613,6.7703,6.7751,6.7922,6.7723,6.8093,6.8116,6.8187,6.8236,6.8266,6.8325,6.7947,6.7946,6.7946,6.7418,6.7445,6.7668,6.7728,6.785,6.7942,6.8041,6.812,6.8108,6.8195,6.8252,6.849,6.8548,6.857,6.8632,6.8313,6.8313,6.8314,6.8314,6.7765,6.7903,6.7887,6.8097,6.8121,6.8295,6.8391,6.8376,6.8538,6.8449,6.8512,6.8408,6.8607,6.8661,6.8322,6.832,6.8319,6.8319,6.8318,6.7966,6.8036,6.8097,6.8282,6.8421,6.8473,6.8631,6.8647,6.8662,6.8726,6.8785,6.8784,6.878,6.8755,6.8755,6.8756,6.8757,6.8758,6.8758,6.8148,6.8214,6.8348,6.8483,6.8565,6.8676,6.8772,6.8851,6.8943,6.8941,6.8942,6.8916,6.8625,6.8548,6.8771,6.8768,6.8767,6.8766,6.8765,6.848,6.8409,6.8616,6.87,6.8858,6.8992,6.9014,6.9175,6.9243,6.9319,6.9283,6.9067,6.9051,6.9028,6.8964,6.9281,6.9281,6.9281,6.9281,6.8646,6.8643,6.8858,6.899,6.9122,6.9163,6.9389,6.9465,6.953,6.9572,6.953,6.9448,6.9425,6.9423,6.9391,6.9331,6.9735,6.9735,6.9736,6.885,6.8861,6.9052,6.9123,6.9248,6.9352,6.9564,6.9711,6.977,6.9754,6.9604,6.9585,6.9454,6.9411,6.9385,6.9336,6.9227,0,0]}]]